Regional Weather Roundup
Issued by NWS Mobile, AL

Home | Current Version | Previous Version | Text Only | Print | Product List | Glossary On
Versions: 1 2 3 4 5 6 7 8 9 10 11 12 13 14 15 16 17 18 19 20 21 22 23 24 25 26 27 28 29 30 31 32 33 34 35 36 37 38 39 40 41 42 43 44 45 46 47 48 49 50
000
ASUS44 KMOB 241112
RWRMOB
REGIONAL WEATHER ROUNDUP
NATIONAL WEATHER SERVICE MOBILE AL
600 AM CDT MON APR 24 2017

NOTE: "FAIR" INDICATES FEW OR NO CLOUDS BELOW 12,000 FEET WITH NO
      SIGNIFICANT WEATHER AND/OR OBSTRUCTIONS TO VISIBILITY.

  * THESE STATIONS ARE PART OF THE UNIVERSITY OF SOUTH ALABAMA
    MESONET AND ARE NOT UNDER NWS OR FAA QUALITY CONTROL.

ALZ061>064-241200-
COASTAL ALABAMA

CITY           SKY/WX    TMP DP  RH WIND       PRES   REMARKS
MOBILE REG APT MOCLDY    53  48  83 NW6       29.83R
BROOKLEY FIELD PTCLDY    55  50  83 NW8       29.84R
USA CAMPUS*      N/A     52  48  87 CALM      29.83R
DOG RIVER*       N/A     54  50  87 W6        30.53R


CITY           SKY/WX    TMP DP  RH WIND       PRES   REMARKS
GULF SHORES    CLOUDY    56  49  78 N5        29.81S

$$

ALZ051>060-241200-
INTERIOR SOUTHWEST AND SOUTH CENTRAL ALABAMA

CITY           SKY/WX    TMP DP  RH WIND       PRES   REMARKS
GREENVILLE     CLOUDY    52  47  83 NW6       29.78R
EVERGREEN      CLOUDY    53  48  83 CALM      29.81R
ATMORE*          N/A     54  50  87 NW6       29.83R
ANDALUSIA/OPP  LGT RAIN  54  51  90 NW7       29.78R
ANDALUSIA*       N/A     52  50  93 W5        29.79R
FLORALA APT    CLOUDY    52  49  89 CALM      29.80R
FLORALA*         N/A     52  50  93 SW5       30.44R

$$

FLZ001>006-241200-
WESTERN FLORIDA PANHANDLE

CITY           SKY/WX    TMP DP  RH WIND       PRES   REMARKS
PENSACOLA      CLOUDY    58  46  64 NW12G18   29.79S
NAS PENSACOLA  MOCLDY    57  46  66 NW6       29.80R
MILTON         CLOUDY    54  46  74 NW9       29.79S
WHTNG S FIELD  CLOUDY    57  47  69 VRB7      29.79S


CITY           SKY/WX    TMP DP  RH WIND       PRES   REMARKS
JAY*             N/A     54  46  76 W3        29.81R
DUKE FIELD     CLOUDY    54  49  82 W6        29.77F
CRESTVIEW      CLOUDY    54  49  83 W3        29.79F
VALPARAISO     MOCLDY    55  49  80 NW3       29.79R
DESTIN         CLOUDY    59  52  77 NW7       29.79R

$$

MSZ076-079-241200-
INTERIOR SOUTHEAST MISSISSIPPI

CITY           SKY/WX    TMP DP  RH WIND       PRES   REMARKS
LEAKESVILLE*   NOT AVBL
AGRICOLA*        N/A     50  48  93 SW2       29.83R

$$

MARINE OBSERVATIONS

STATION/POSITION TIME  TEMP    WIND        PRES    WAVE
                       AIR SEA DIR/SP/G            HT/PER
                 (UTC) (F)     (DEG/KT/KT) (MB)    (FT/S)
PASCAGOULA       1048   55     300/ 10/ 12 1010.0R
PETIT BOIS ISLND 1048   58     330/ 14/ 18 1010.7R
GRAND BAY        0945   54     310/  6     1011.0S
KATRINA CUT      1030   58     340/ 14     1009.8S
CEDAR POINT      1030   56     330/  8     1009.1S
E DAUPHIN ISLAND 1000   57     330/ 13/ 15 1009.7S
MIDDLE BAY LIGHT 1030   58     310/ 15     1009.5S
USCG MOBILE BAY  1048   55 74  300/  5/  7 1010.6R
STATE DOCKS      1042   55 74              1009.7R
MEAHER PARK      1030   56     300/  8     1008.8F
FORT MORGAN      1048   57     330/ 14/ 19   N/A
12 S ORANGE BCH  1050   59 73  350/ 14/ 19 1008.8R   2/ 4
PENSACOLA BAY    1042   57 75  320/  6/  9 1009.2S
64 S DAUPHIN ISL 1050   64 74  330/ 16/ 19 1010.3R   4/ 6
67 S FORT MORGAN 1030   63        CALM     1009.8S

$$

SELECTED LOCATIONS ACROSS THE REGION

CITY           SKY/WX    TMP DP  RH WIND       PRES   REMARKS
NEW ORLEANS    PTCLDY    53  50  89 W8        29.90R
GULFPORT       CLEAR     51  50  96 W3        29.85R
PASCAGOULA AP  CLEAR     50  47  89 W3        29.84R
PASCAGOULA*    NOT AVBL
HATTIESBURG    CLEAR     53  48  83 NW8       29.86R
LAUREL         CLEAR     50  45  81 W5        29.86R
MERIDIAN       CLOUDY    52  49  89 NW6       29.84R
JACKSON        CLEAR     51  48  89 W3        29.87R
MONTGOMERY     CLOUDY    54  47  77 W8        29.79R
TROY           CLOUDY    53  49  86 NW7       29.78R
ASHFORD*         N/A     52  50  93 W5        29.79R
DOTHAN         CLOUDY    54  51  90 W8        29.80R
PANAMA CITY    CLOUDY    55  51  86 W9        29.78R

$$




USA.gov is the U.S. government's official web portal to all federal, state and local government web resources and services.